Weather in Varvarinskiy

Russia / Republic of Buryatia     54°18′58″N   112°21′44″E
temp.,
°C
wind,
m/s
gust,
m/s
humid.,
%
clouds,
%
prec.,
mm/h
press.,
hPa
HPBL,
m
29 july, thu
thu2923:00+12nw1193100 0.1 100610
02:00+11n1192100 0.1 100512
05:00+11nne1191100 0.0 100510
08:00+12nw1189100 0.0 100416
11:00+17nw1166100 0.0 1003652
14:00+19e235668 0.2 10021256
17:00+17e456339 0.3 1003799
20:00+14ese268716 0.4 1005131
30 july, fri
fri3023:00+10e119537 0.0 100710
02:00+9nw11964 0.0 100812
05:00+9n119422 0.0 100811
08:00+15nnw016931 0.0 1007463
11:00+17nw115976 0.0 1007794
14:00+21n13474 0.0 10051483
17:00+20w0248100 0.0 10051085
20:00+14sse118166 0.6 100711
31 july, sat
sat3123:00+13e2287100 1.3 100931
02:00+11e1194100 1.6 101113
05:00+10s119741 0.7 101314
08:00+14w11820 0.7 1012374
11:00+20wnw12573 0.0 10111098
14:00+22nnw234035 0.0 10092495
17:00+20nnw1258100 0.0 1009526
20:00+15se1179100 0.1 101111
1 august, sun
sun123:00+14ese2277100 0.0 101224
02:00+13se117783 0.0 101311
05:00+10e11891 0.0 101310
08:00+16s11630 0.0 1011408
11:00+21wsw01526 0.0 10091550
14:00+24ne023832 0.0 10072439
17:00+20se3452100 0.0 1006530
20:00+15se227845 0.0 100843
2 august, mon
mon223:00+12e118827 0.0 100911
02:00+10e11923 0.0 100810
05:00+9ese11945 0.0 100710
08:00+16s11710 0.0 1005321
11:00+22wsw24492 0.0 10031561
14:00+22w354253 0.0 10011904
17:00+23nw45376 0.0 10012269
20:00+16wnw23681 0.0 100336